Hourly Weather Bolshie Koshevniki

Today, 23 June, Wednesday

Time Temperature Precipitation Wind Pressure Humidity
00:00 +24°C° 0 mm 3 mps 742 mmHg 78%
01:00 +22°C° 0 mm 3 mps 742 mmHg 77%
02:00 +22°C° 0 mm 4 mps 742 mmHg 75%
03:00 +22°C° 0 mm 3 mps 742 mmHg 79%
04:00 +21°C° 0 mm 3 mps 742 mmHg 83%
05:00 +20°C° 0 mm 3 mps 742 mmHg 87%
06:00 +22°C° 0 mm 3 mps 743 mmHg 82%
07:00 +23°C° 0 mm 4 mps 743 mmHg 78%
08:00 +26°C° 0 mm 4 mps 744 mmHg 73%
09:00 +27°C° 0 mm 4 mps 744 mmHg 68%
10:00 +28°C° 0 mm 4 mps 744 mmHg 64%
11:00 +30°C° 0 mm 4 mps 744 mmHg 60%
12:00 +30°C° 0 mm 4 mps 744 mmHg 58%
13:00 +32°C° 0 mm 4 mps 744 mmHg 56%
14:00 +33°C° 0 mm 4 mps 744 mmHg 54%
15:00 +33°C° 0 mm 3 mps 744 mmHg 56%
16:00 +31°C° 0 mm 3 mps 744 mmHg 59%
17:00 +31°C° 0 mm 2 mps 744 mmHg 61%
18:00 +30°C° 0 mm 2 mps 744 mmHg 67%
19:00 +28°C° 0 mm 2 mps 744 mmHg 72%
20:00 +27°C° 0 mm 2 mps 744 mmHg 77%
21:00 +26°C° 0.1 mm 2 mps 744 mmHg 78%
22:00 +25°C° 0.1 mm 2 mps 744 mmHg 79%
23:00 +24°C° 0.1 mm 1 mps 745 mmHg 79%

Tomorrow, 24 June, Thursday

Time Temperature Precipitation Wind Pressure Humidity
00:00 +23°C° 0.3 mm 1 mps 745 mmHg 80%
01:00 +23°C° 0.3 mm 1 mps 744 mmHg 81%
02:00 +23°C° 0.3 mm 1 mps 744 mmHg 82%
03:00 +23°C° 0.1 mm 1 mps 744 mmHg 83%
04:00 +23°C° 0.1 mm 1 mps 744 mmHg 84%
05:00 +23°C° 0.1 mm 1 mps 744 mmHg 85%
06:00 +24°C° 0.2 mm 1 mps 744 mmHg 83%
07:00 +26°C° 0.2 mm 2 mps 744 mmHg 81%
08:00 +27°C° 0.2 mm 2 mps 744 mmHg 79%
09:00 +28°C° 0 mm 2 mps 744 mmHg 73%
10:00 +30°C° 0 mm 3 mps 744 mmHg 67%
11:00 +32°C° 0 mm 4 mps 744 mmHg 61%
12:00 +33°C° 0 mm 4 mps 744 mmHg 57%
13:00 +33°C° 0 mm 4 mps 744 mmHg 54%
14:00 +33°C° 0 mm 4 mps 744 mmHg 50%
15:00 +33°C° 0 mm 4 mps 743 mmHg 53%
16:00 +33°C° 0 mm 4 mps 743 mmHg 56%
17:00 +33°C° 0 mm 3 mps 742 mmHg 58%
18:00 +30°C° 0 mm 3 mps 742 mmHg 64%
19:00 +29°C° 0 mm 2 mps 742 mmHg 69%
20:00 +27°C° 0 mm 1 mps 742 mmHg 75%
21:00 +26°C° 0.2 mm 2 mps 742 mmHg 77%
22:00 +25°C° 0.2 mm 2 mps 742 mmHg 79%
23:00 +24°C° 0.2 mm 2 mps 742 mmHg 82%

Day after tomorrow, 25 June, Friday

Time Temperature Precipitation Wind Pressure Humidity
00:00 +23°C° 0.6 mm 2 mps 742 mmHg 85%
01:00 +21°C° 0.6 mm 2 mps 742 mmHg 87%
02:00 +21°C° 0.6 mm 1 mps 741 mmHg 90%
03:00 +20°C° 0.1 mm 2 mps 741 mmHg 90%
04:00 +20°C° 0.1 mm 2 mps 741 mmHg 89%
05:00 +20°C° 0.1 mm 2 mps 741 mmHg 89%
06:00 +21°C° 0.1 mm 3 mps 741 mmHg 86%
07:00 +24°C° 0.1 mm 3 mps 741 mmHg 83%
08:00 +25°C° 0.1 mm 4 mps 741 mmHg 80%
09:00 +27°C° 0.3 mm 4 mps 741 mmHg 76%
10:00 +28°C° 0.3 mm 3 mps 741 mmHg 73%
11:00 +29°C° 0.3 mm 3 mps 741 mmHg 69%
12:00 +29°C° 0.6 mm 3 mps 741 mmHg 70%
13:00 +29°C° 0.6 mm 4 mps 741 mmHg 71%
14:00 +29°C° 0.6 mm 4 mps 741 mmHg 71%
15:00 +27°C° 1.1 mm 3 mps 741 mmHg 76%
16:00 +26°C° 1.1 mm 3 mps 741 mmHg 80%
17:00 +24°C° 1.1 mm 2 mps 740 mmHg 84%
18:00 +24°C° 0.4 mm 2 mps 740 mmHg 84%
19:00 +24°C° 0.4 mm 1 mps 740 mmHg 85%
20:00 +23°C° 0.4 mm 1 mps 739 mmHg 85%
21:00 +22°C° 1 mm 1 mps 739 mmHg 88%
22:00 +20°C° 1 mm 2 mps 739 mmHg 91%
23:00 +19°C° 1 mm 2 mps 740 mmHg 93%

26 June, Saturday

Time Temperature Precipitation Wind Pressure Humidity
00:00 +19°C° 0.2 mm 2 mps 740 mmHg 94%
01:00 +18°C° 0.2 mm 2 mps 739 mmHg 94%
02:00 +18°C° 0.2 mm 2 mps 739 mmHg 94%
03:00 +18°C° 0.1 mm 2 mps 739 mmHg 95%
04:00 +18°C° 0.1 mm 2 mps 739 mmHg 95%
05:00 +18°C° 0.1 mm 2 mps 739 mmHg 96%
06:00 +19°C° 0 mm 2 mps 740 mmHg 95%
07:00 +20°C° 0 mm 2 mps 740 mmHg 94%
08:00 +20°C° 0 mm 3 mps 740 mmHg 93%
09:00 +21°C° 0 mm 3 mps 740 mmHg 91%
10:00 +21°C° 0 mm 3 mps 740 mmHg 89%
11:00 +22°C° 0 mm 4 mps 741 mmHg 87%
12:00 +22°C° 0.1 mm 3 mps 741 mmHg 84%
13:00 +24°C° 0.1 mm 3 mps 741 mmHg 81%
14:00 +24°C° 0.1 mm 3 mps 741 mmHg 77%
15:00 +25°C° 0 mm 4 mps 741 mmHg 75%
16:00 +25°C° 0 mm 4 mps 741 mmHg 73%
17:00 +25°C° 0 mm 4 mps 741 mmHg 71%
18:00 +24°C° 0 mm 3 mps 741 mmHg 77%
19:00 +22°C° 0 mm 3 mps 741 mmHg 83%
20:00 +21°C° 0 mm 2 mps 741 mmHg 88%
21:00 +20°C° 0 mm 2 mps 741 mmHg 91%
22:00 +19°C° 0 mm 2 mps 741 mmHg 93%
23:00 +18°C° 0 mm 2 mps 741 mmHg 95%

27 June, Sunday

Time Temperature Precipitation Wind Pressure Humidity
00:00 +17°C° 0 mm 2 mps 741 mmHg 96%
01:00 +17°C° 0 mm 2 mps 741 mmHg 96%
02:00 +16°C° 0 mm 2 mps 741 mmHg 97%
03:00 +16°C° 0 mm 2 mps 742 mmHg 96%
04:00 +16°C° 0 mm 2 mps 742 mmHg 95%
05:00 +16°C° 0 mm 2 mps 742 mmHg 95%
06:00 +17°C° 0 mm 2 mps 742 mmHg 89%
07:00 +18°C° 0 mm 3 mps 742 mmHg 83%
08:00 +19°C° 0 mm 3 mps 742 mmHg 77%
09:00 +20°C° 0 mm 4 mps 742 mmHg 73%
10:00 +21°C° 0 mm 4 mps 742 mmHg 69%
11:00 +22°C° 0 mm 4 mps 742 mmHg 65%
12:00 +22°C° 0 mm 4 mps 743 mmHg 66%
13:00 +22°C° 0 mm 4 mps 743 mmHg 67%
14:00 +22°C° 0 mm 4 mps 743 mmHg 68%
15:00 +22°C° 0 mm 4 mps 743 mmHg 70%
16:00 +22°C° 0 mm 3 mps 743 mmHg 71%
17:00 +22°C° 0 mm 3 mps 743 mmHg 73%
18:00 +21°C° 0 mm 3 mps 743 mmHg 77%
19:00 +20°C° 0 mm 3 mps 742 mmHg 80%
20:00 +19°C° 0 mm 2 mps 742 mmHg 84%
21:00 +18°C° 0 mm 2 mps 742 mmHg 87%
22:00 +17°C° 0 mm 2 mps 743 mmHg 90%
23:00 +17°C° 0 mm 2 mps 743 mmHg 93%

28 June, Monday

Time Temperature Precipitation Wind Pressure Humidity
00:00 +16°C° 0 mm 2 mps 743 mmHg 94%
01:00 +16°C° 0 mm 2 mps 743 mmHg 94%
02:00 +15°C° 0 mm 2 mps 743 mmHg 94%
03:00 +15°C° 0 mm 2 mps 743 mmHg 93%
04:00 +15°C° 0 mm 2 mps 743 mmHg 92%
05:00 +14°C° 0 mm 2 mps 743 mmHg 90%
06:00 +16°C° 0 mm 2 mps 743 mmHg 85%
07:00 +17°C° 0 mm 2 mps 743 mmHg 79%
08:00 +19°C° 0 mm 2 mps 743 mmHg 73%
09:00 +20°C° 0 mm 3 mps 744 mmHg 69%
10:00 +21°C° 0 mm 3 mps 744 mmHg 64%
11:00 +23°C° 0 mm 4 mps 744 mmHg 60%
12:00 +23°C° 0 mm 4 mps 743 mmHg 57%
13:00 +25°C° 0 mm 4 mps 743 mmHg 54%
14:00 +26°C° 0 mm 4 mps 743 mmHg 52%
15:00 +26°C° 0 mm 4 mps 743 mmHg 55%
16:00 +25°C° 0 mm 4 mps 743 mmHg 58%
17:00 +25°C° 0 mm 4 mps 743 mmHg 62%
18:00 +24°C° 0 mm 3 mps 743 mmHg 67%
19:00 +21°C° 0 mm 3 mps 742 mmHg 72%
20:00 +20°C° 0 mm 3 mps 742 mmHg 78%
21:00 +19°C° 0 mm 2 mps 742 mmHg 82%
22:00 +18°C° 0 mm 2 mps 742 mmHg 86%
23:00 +16°C° 0 mm 2 mps 742 mmHg 90%
Show more